�������l�o���
Date,Time,MP-1(��Sv/h),MP-2(��Sv/h),MP-3(��Sv/h),MP-4(��Sv/h),MP-5(��Sv/h),MP-6(��Sv/h),MP-7(��Sv/h),MP-8(��Sv/h),����,����(m/s),���J
2019/05/26,00:00,0.770,1.122,0.764,1.397,1.027,0.442,0.767,0.723,�k��,3.8,��
2019/05/26,00:10,0.769,1.119,0.765,1.400,1.027,0.442,0.765,0.725,�k��,3.1,��
2019/05/26,00:20,0.770,1.120,0.764,1.397,1.027,0.441,0.767,0.723,�k��,1.4,��
2019/05/26,00:30,0.771,1.121,0.764,1.396,1.025,0.442,0.767,0.724,�k�k��,0.8,��
2019/05/26,00:40,0.768,1.121,0.764,1.396,1.026,0.442,0.766,0.725,��쓌,0.6,��
2019/05/26,00:50,0.770,1.119,0.764,1.395,1.025,0.443,0.765,0.725,�k,0.9,��
2019/05/26,01:00,0.769,1.120,0.765,1.396,1.025,0.442,0.765,0.723,�k,1.2,��
2019/05/26,01:10,0.769,1.117,0.764,1.397,1.028,0.442,0.765,0.725,��,0.6,��
2019/05/26,01:20,0.767,1.121,0.765,1.395,1.026,0.443,0.767,0.722,-,CALM,��
2019/05/26,01:30,0.768,1.119,0.764,1.395,1.024,0.442,0.766,0.724,�쐼,1.2,��
2019/05/26,01:40,0.769,1.120,0.764,1.398,1.024,0.441,0.766,0.723,-,CALM,��
2019/05/26,01:50,0.769,1.119,0.766,1.398,1.027,0.441,0.765,0.724,�k�k��,0.9,��
2019/05/26,02:00,0.768,1.120,0.764,1.397,1.026,0.441,0.766,0.724,-,CALM,��
2019/05/26,02:10,0.768,1.120,0.764,1.397,1.027,0.441,0.766,0.725,�k�k��,0.9,��
2019/05/26,02:20,0.768,1.119,0.764,1.397,1.024,0.441,0.766,0.723,�k,1.2,��
2019/05/26,02:30,0.768,1.120,0.762,1.395,1.025,0.443,0.765,0.723,�k�k��,1.7,��
2019/05/26,02:40,0.768,1.119,0.762,1.394,1.025,0.442,0.765,0.723,�k��,1.7,��
2019/05/26,02:50,0.771,1.119,0.763,1.393,1.026,0.441,0.767,0.724,�k��,2.5,��
2019/05/26,03:00,0.768,1.118,0.763,1.396,1.024,0.441,0.766,0.724,�k��,2.9,��
2019/05/26,03:10,0.767,1.117,0.763,1.395,1.024,0.442,0.766,0.724,�k�k��,2.6,��
2019/05/26,03:20,0.767,1.117,0.764,1.395,1.023,0.439,0.767,0.725,�k�k��,2.5,��
2019/05/26,03:30,0.768,1.118,0.763,1.395,1.025,0.441,0.766,0.723,�k�k��,2.0,��
2019/05/26,03:40,0.769,1.118,0.763,1.396,1.022,0.441,0.764,0.723,�k��,2.3,��
2019/05/26,03:50,0.769,1.118,0.764,1.395,1.023,0.441,0.765,0.724,�k��,2.2,��
2019/05/26,04:00,0.768,1.119,0.762,1.395,1.024,0.442,0.765,0.725,�k��,1.7,��
2019/05/26,04:10,0.767,1.119,0.763,1.395,1.025,0.440,0.766,0.724,�k��,2.0,��
2019/05/26,04:20,0.769,1.119,0.764,1.399,1.026,0.440,0.765,0.724,�k��,2.0,��
2019/05/26,04:30,0.767,1.117,0.763,1.394,1.025,0.442,0.765,0.724,���k��,1.2,��
2019/05/26,04:40,0.767,1.118,0.763,1.395,1.026,0.441,0.766,0.723,���k��,0.9,��
2019/05/26,04:50,0.768,1.117,0.762,1.392,1.024,0.441,0.766,0.724,��,0.9,��
2019/05/26,05:00,0.770,1.118,0.763,1.394,1.023,0.441,0.766,0.726,�쐼,0.9,��
2019/05/26,05:10,0.768,1.118,0.763,1.395,1.023,0.441,0.766,0.724,�쐼,0.9,��
2019/05/26,05:20,0.767,1.118,0.764,1.394,1.023,0.441,0.766,0.724,��쐼,0.9,��
2019/05/26,05:30,0.768,1.120,0.764,1.394,1.024,0.439,0.766,0.723,���쐼,0.8,��
2019/05/26,05:40,0.770,1.121,0.763,1.395,1.023,0.440,0.767,0.724,��,0.6,��
2019/05/26,05:50,0.768,1.119,0.763,1.394,1.025,0.442,0.768,0.725,-,CALM,��
2019/05/26,06:00,0.768,1.121,0.765,1.394,1.024,0.441,0.766,0.724,-,CALM,��
2019/05/26,06:10,0.768,1.118,0.766,1.395,1.025,0.443,0.765,0.723,�k�k��,0.9,��
2019/05/26,06:20,0.767,1.121,0.765,1.396,1.025,0.442,0.767,0.725,-,CALM,��
2019/05/26,06:30,0.766,1.116,0.765,1.395,1.023,0.442,0.768,0.725,-,CALM,��
2019/05/26,06:40,0.768,1.116,0.763,1.394,1.020,0.441,0.769,0.722,-,CALM,��
2019/05/26,06:50,0.768,1.114,0.763,1.393,1.025,0.441,0.765,0.725,���쓌,0.6,��
2019/05/26,07:00,0.765,1.116,0.766,1.394,1.026,0.439,0.767,0.725,���쓌,1.2,��
2019/05/26,07:10,0.767,1.117,0.764,1.392,1.024,0.440,0.765,0.725,���쓌,1.2,��
2019/05/26,07:20,0.767,1.116,0.762,1.395,1.023,0.438,0.765,0.725,��,1.2,��
2019/05/26,07:30,0.766,1.115,0.764,1.396,1.023,0.439,0.766,0.725,���k��,0.9,��
2019/05/26,07:40,0.768,1.118,0.764,1.396,1.023,0.440,0.768,0.724,��,1.2,��
2019/05/26,07:50,0.768,1.116,0.764,1.395,1.026,0.438,0.768,0.723,���k��,1.1,��
2019/05/26,08:00,0.767,1.117,0.765,1.398,1.025,0.439,0.766,0.723,���k��,0.6,��
2019/05/26,08:10,0.770,1.120,0.766,1.396,1.024,0.438,0.765,0.722,�k��,1.2,��
2019/05/26,08:20,0.769,1.116,0.763,1.394,1.026,0.440,0.766,0.722,���k��,1.5,��
2019/05/26,08:30,0.768,1.119,0.763,1.395,1.026,0.438,0.765,0.723,�k��,1.5,��
2019/05/26,08:40,0.767,1.120,0.766,1.396,1.023,0.440,0.766,0.724,��,1.7,��
2019/05/26,08:50,0.768,1.121,0.765,1.396,1.024,0.441,0.766,0.722,���k��,1.5,��
2019/05/26,09:00,0.769,1.121,0.766,1.396,1.024,0.439,0.765,0.721,���k��,1.2,��
2019/05/26,09:10,0.767,1.120,0.765,1.396,1.027,0.440,0.765,0.723,���k��,1.4,��
2019/05/26,09:20,0.769,1.122,0.767,1.398,1.025,0.439,0.767,0.723,���쓌,1.5,��
2019/05/26,09:30,0.769,1.120,0.763,1.397,1.024,0.440,0.766,0.723,���k��,1.2,��
2019/05/26,09:40,0.770,1.124,0.763,1.397,1.028,0.440,0.766,0.723,���쓌,1.4,��
2019/05/26,09:50,0.768,1.119,0.765,1.397,1.027,0.441,0.765,0.723,�쓌,2.0,��
2019/05/26,10:00,0.769,1.122,0.765,1.398,1.029,0.439,0.766,0.723,�쓌,2.0,��
2019/05/26,10:10,0.771,1.122,0.762,1.400,1.030,0.440,0.768,0.723,�쓌,2.0,��
2019/05/26,10:20,0.770,1.123,0.762,1.399,1.028,0.442,0.768,0.723,�쓌,2.5,��
2019/05/26,10:30,0.770,1.122,0.765,1.397,1.028,0.440,0.767,0.725,��쓌,3.0,��
2019/05/26,10:40,0.769,1.125,0.765,1.398,1.029,0.439,0.767,0.723,��쓌,3.3,��
2019/05/26,10:50,0.771,1.122,0.765,1.399,1.033,0.441,0.767,0.723,��쓌,3.7,��
2019/05/26,11:00,0.772,1.123,0.766,1.399,1.030,0.440,0.767,0.722,�쓌,4.2,��
2019/05/26,11:10,0.773,1.125,0.767,1.397,1.031,0.439,0.767,0.722,��쓌,4.0,��
2019/05/26,11:20,0.771,1.124,0.766,1.397,1.032,0.441,0.767,0.725,��쓌,4.0,��
2019/05/26,11:30,0.771,1.123,0.768,1.397,1.030,0.441,0.767,0.723,��쓌,3.9,��
2019/05/26,11:40,0.772,1.123,0.765,1.398,1.031,0.441,0.768,0.725,��쓌,3.5,��
2019/05/26,11:50,0.770,1.124,0.766,1.397,1.031,0.440,0.766,0.725,�쓌,3.6,��
2019/05/26,12:00,0.773,1.124,0.766,1.395,1.030,0.439,0.764,0.723,���쓌,3.8,��
2019/05/26,12:10,0.771,1.125,0.767,1.396,1.033,0.441,0.767,0.724,�쓌,3.7,��
2019/05/26,12:20,0.771,1.127,0.767,1.399,1.032,0.441,0.768,0.723,���쓌,3.7,��
2019/05/26,12:30,0.771,1.127,0.768,1.395,1.032,0.440,0.768,0.725,�쓌,4.4,��
2019/05/26,12:40,0.773,1.129,0.766,1.399,1.032,0.442,0.766,0.724,�쓌,4.1,��
2019/05/26,12:50,0.772,1.129,0.768,1.397,1.034,0.441,0.766,0.723,�쓌,3.5,��
2019/05/26,13:00,0.771,1.127,0.769,1.400,1.035,0.439,0.767,0.724,��쓌,3.2,��
2019/05/26,13:10,0.772,1.128,0.767,1.400,1.034,0.441,0.766,0.723,��쓌,3.4,��
2019/05/26,13:20,0.775,1.129,0.768,1.399,1.032,0.441,0.767,0.724,��쓌,3.9,��
2019/05/26,13:30,0.773,1.130,0.767,1.400,1.034,0.441,0.768,0.724,��쓌,3.6,��
2019/05/26,13:40,0.772,1.127,0.765,1.399,1.033,0.440,0.767,0.724,��쓌,4.8,��
2019/05/26,13:50,0.771,1.129,0.767,1.399,1.033,0.441,0.768,0.725,��쓌,5.1,��
2019/05/26,14:00,0.771,1.127,0.768,1.399,1.031,0.442,0.769,0.725,��,4.3,��
2019/05/26,14:10,0.773,1.129,0.768,1.401,1.033,0.440,0.768,0.724,��,4.6,��
2019/05/26,14:20,0.773,1.129,0.768,1.399,1.035,0.442,0.768,0.725,��,3.5,��
2019/05/26,14:30,0.773,1.128,0.768,1.399,1.035,0.441,0.768,0.723,��,3.0,��
2019/05/26,14:40,0.773,1.130,0.770,1.401,1.035,0.442,0.766,0.724,��쓌,4.1,��
2019/05/26,14:50,0.774,1.130,0.767,1.402,1.034,0.441,0.767,0.724,��쓌,4.6,��
2019/05/26,15:00,0.771,1.129,0.767,1.399,1.035,0.442,0.766,0.723,��쓌,5.6,��
2019/05/26,15:10,0.773,1.128,0.769,1.403,1.035,0.442,0.767,0.724,��쓌,5.5,��
2019/05/26,15:20,0.773,1.126,0.768,1.399,1.036,0.441,0.766,0.726,��쓌,6.3,��
2019/05/26,15:30,0.774,1.130,0.768,1.402,1.036,0.442,0.766,0.723,��쓌,5.4,��
2019/05/26,15:40,0.771,1.131,0.767,1.401,1.036,0.441,0.768,0.724,��쓌,6.2,��
2019/05/26,15:50,0.775,1.127,0.769,1.403,1.036,0.442,0.767,0.725,��,5.1,��
2019/05/26,16:00,0.775,1.127,0.768,1.401,1.037,0.442,0.767,0.724,��,5.5,��
2019/05/26,16:10,0.775,1.130,0.768,1.401,1.035,0.440,0.768,0.725,��,5.0,��
2019/05/26,16:20,0.773,1.132,0.769,1.401,1.036,0.442,0.768,0.724,��,3.5,��
2019/05/26,16:30,0.774,1.130,0.770,1.403,1.037,0.441,0.768,0.723,��쐼,2.3,��
2019/05/26,16:40,0.773,1.130,0.771,1.404,1.037,0.441,0.768,0.725,��,2.0,��
2019/05/26,16:50,0.772,1.132,0.770,1.405,1.035,0.442,0.769,0.725,���쐼,1.2,��
2019/05/26,17:00,0.771,1.130,0.770,1.401,1.037,0.443,0.768,0.724,���k��,2.0,��
2019/05/26,17:10,0.775,1.129,0.770,1.403,1.039,0.442,0.768,0.725,���k��,1.9,��
2019/05/26,17:20,0.773,1.128,0.772,1.404,1.040,0.443,0.767,0.727,�k��,2.2,��
2019/05/26,17:30,0.771,1.130,0.771,1.403,1.039,0.443,0.767,0.725,�k��,1.4,��
2019/05/26,17:40,0.773,1.129,0.772,1.401,1.038,0.443,0.767,0.725,�k,0.6,��
2019/05/26,17:50,0.771,1.129,0.770,1.402,1.036,0.444,0.768,0.723,��,0.9,��
2019/05/26,18:00,0.772,1.129,0.769,1.403,1.037,0.442,0.767,0.724,���쓌,1.4,��
2019/05/26,18:10,0.772,1.128,0.770,1.402,1.037,0.443,0.766,0.724,���쓌,1.4,��
2019/05/26,18:20,0.772,1.132,0.771,1.403,1.037,0.442,0.768,0.726,�쓌,1.7,��
2019/05/26,18:30,0.773,1.131,0.770,1.404,1.037,0.441,0.768,0.727,��쓌,2.0,��
2019/05/26,18:40,0.774,1.132,0.770,1.403,1.036,0.443,0.769,0.726,��,2.2,��
2019/05/26,18:50,0.775,1.129,0.772,1.403,1.035,0.444,0.770,0.727,��쐼,1.7,��
2019/05/26,19:00,0.774,1.133,0.771,1.404,1.037,0.444,0.768,0.727,��쐼,1.7,��
2019/05/26,19:10,0.775,1.130,0.771,1.404,1.037,0.443,0.770,0.727,�쐼,2.0,��
2019/05/26,19:20,0.774,1.128,0.771,1.402,1.038,0.443,0.770,0.727,��쐼,2.0,��
2019/05/26,19:30,0.775,1.127,0.773,1.405,1.038,0.445,0.768,0.727,��쐼,2.3,��
2019/05/26,19:40,0.777,1.131,0.770,1.404,1.037,0.443,0.769,0.727,��쐼,2.5,��
2019/05/26,19:50,0.775,1.129,0.772,1.404,1.037,0.442,0.769,0.726,��쐼,2.3,��
2019/05/26,20:00,0.776,1.127,0.770,1.404,1.039,0.444,0.769,0.726,��쐼,3.0,��
2019/05/26,20:10,0.777,1.128,0.771,1.406,1.036,0.444,0.770,0.727,��쐼,2.0,��
2019/05/26,20:20,0.777,1.129,0.770,1.405,1.040,0.444,0.769,0.727,��쐼,1.7,��
2019/05/26,20:30,0.777,1.128,0.771,1.405,1.036,0.443,0.769,0.728,��,1.5,��
2019/05/26,20:40,0.776,1.129,0.771,1.405,1.038,0.443,0.769,0.729,��쓌,1.5,��
2019/05/26,20:50,0.774,1.129,0.771,1.403,1.037,0.443,0.768,0.728,��,1.7,��
2019/05/26,21:00,0.775,1.130,0.771,1.403,1.039,0.440,0.769,0.727,��,1.9,��
2019/05/26,21:10,0.776,1.128,0.769,1.405,1.038,0.443,0.770,0.727,��쐼,1.4,��
2019/05/26,21:20,0.775,1.130,0.770,1.406,1.038,0.444,0.768,0.726,��,1.1,��
2019/05/26,21:30,0.776,1.130,0.771,1.404,1.036,0.444,0.770,0.726,�쐼,0.9,��
2019/05/26,21:40,0.773,1.129,0.770,1.407,1.038,0.445,0.770,0.727,��,1.1,��
2019/05/26,21:50,0.778,1.128,0.772,1.405,1.036,0.442,0.769,0.727,���쐼,1.2,��
2019/05/26,22:00,0.775,1.129,0.772,1.405,1.038,0.443,0.770,0.727,���쐼,1.2,��
2019/05/26,22:10,0.775,1.129,0.771,1.405,1.038,0.443,0.769,0.726,���쐼,0.9,��
2019/05/26,22:20,0.777,1.128,0.769,1.405,1.035,0.444,0.768,0.728,-,CALM,��
2019/05/26,22:30,0.774,1.127,0.772,1.405,1.035,0.444,0.769,0.727,��,1.2,��
2019/05/26,22:40,0.776,1.130,0.772,1.406,1.035,0.443,0.770,0.727,���k��,2.2,��
2019/05/26,22:50,0.776,1.129,0.771,1.408,1.035,0.444,0.768,0.728,��,1.2,��
2019/05/26,23:00,0.774,1.127,0.772,1.409,1.036,0.443,0.769,0.726,���k��,1.1,��
2019/05/26,23:10,0.776,1.128,0.769,1.405,1.035,0.444,0.769,0.726,-,CALM,��
2019/05/26,23:20,0.775,1.127,0.771,1.406,1.035,0.444,0.768,0.728,��,1.2,��
2019/05/26,23:30,0.776,1.129,0.771,1.406,1.038,0.443,0.770,0.726,��,1.4,��
2019/05/26,23:40,0.776,1.128,0.769,1.405,1.034,0.443,0.769,0.726,��쐼,1.2,��
2019/05/26,23:50,0.775,1.127,0.769,1.405,1.035,0.443,0.769,0.727,��쐼,1.5,��
